,,PA_Meas_PMT16A,,PR_Meas_QMR101_102,,RH_Meas_QMH101,,SR_Meas_QMS101,,TA_Meas_QMH101,,GenWind,,GenWind,
time,status,PA,status,PR,status,RH,status,SR,status,TA,status,DirAvg,status,SpdAvg,
2012-03-21, 00:00:04,VALID,919.386,VALID,0,VALID,95.468,VALID,0,VALID,19.9158,VALID,22,VALID,0.5125,
2012-03-21, 00:01:04,VALID,919.428,VALID,0,VALID,95.2088,VALID,0,VALID,19.8978,VALID,22,VALID,1.14141,
2012-03-21, 00:02:04,VALID,919.425,VALID,0,VALID,95.2165,VALID,0,VALID,19.8963,VALID,22,VALID,0.69375,
2012-03-21, 00:03:04,VALID,919.455,VALID,0,VALID,95.0183,VALID,0,VALID,19.9353,VALID,22,VALID,0.0800781,
2012-03-21, 00:04:04,VALID,919.443,VALID,0,VALID,94.7438,VALID,0,VALID,19.9158,VALID,22,VALID,0.222266,
2012-03-21, 00:05:04,VALID,919.481,VALID,0,VALID,94.6447,VALID,0,VALID,19.9353,VALID,22,VALID,0.10625,
2012-03-21, 00:06:04,VALID,919.443,VALID,0,VALID,94.4694,VALID,0,VALID,19.9548,VALID,22,VALID,0.0242187,
2012-03-21, 00:07:04,VALID,919.446,VALID,0,VALID,94.4008,VALID,0,VALID,19.9758,VALID,22,VALID,0.312891,
2012-03-21, 00:08:04,VALID,919.442,VALID,0,VALID,93.7147,VALID,0,VALID,19.9158,VALID,23,VALID,0.270703,
2012-03-21, 00:09:04,VALID,919.401,VALID,0,VALID,93.3945,VALID,0,VALID,19.8378,VALID,22,VALID,0.677734,
2012-03-21, 00:10:04,VALID,919.423,VALID,0,VALID,93.6613,VALID,0,VALID,19.7793,VALID,22,VALID,0.620313,
2012-03-21, 00:11:04,VALID,919.447,VALID,0,VALID,94.073,VALID,0,VALID,19.7403,VALID,22,VALID,0.681641,
2012-03-21, 00:12:04,VALID,919.461,VALID,0,VALID,94.4541,VALID,0,VALID,19.7403,VALID,22,VALID,0.365625,
2012-03-21, 00:13:04,VALID,919.441,VALID,0,VALID,94.7896,VALID,0,VALID,19.7193,VALID,22,VALID,0.145703,
2012-03-21, 00:14:04,VALID,919.418,VALID,0,VALID,95.0716,VALID,0,VALID,19.7808,VALID,22,VALID,0.189453,
2012-03-21, 00:15:04,VALID,919.351,VALID,0,VALID,95.2317,VALID,0,VALID,19.7988,VALID,22,VALID,0.0542969,
2012-03-21, 00:16:04,VALID,919.347,VALID,0,VALID,95.2775,VALID,0,VALID,19.7988,VALID,22,VALID,0.597266,
2012-03-21, 00:17:04,VALID,919.3,VALID,0,VALID,94.942,VALID,0.107441,VALID,19.7598,VALID,22,VALID,0.557031,
2012-03-21, 00:18:04,VALID,919.335,VALID,0,VALID,94.7667,VALID,0,VALID,19.7403,VALID,22,VALID,0.388672,
2012-03-21, 00:19:04,VALID,919.304,VALID,0,VALID,94.8353,VALID,0,VALID,19.7208,VALID,22,VALID,0.430859,
2012-03-21, 00:20:04,VALID,919.316,VALID,0,VALID,95.0335,VALID,0,VALID,19.7208,VALID,22,VALID,0.747266,
2012-03-21, 00:21:04,VALID,919.272,VALID,0,VALID,94.9801,VALID,0,VALID,19.7013,VALID,22,VALID,0.501953,
2012-03-21, 00:22:04,VALID,919.289,VALID,0,VALID,95.2165,VALID,0,VALID,19.7223,VALID,22,VALID,0.518359,
2012-03-21, 00:23:04,VALID,919.267,VALID,0,VALID,95.2775,VALID,0,VALID,19.7013,VALID,22,VALID,0.357812,
2012-03-21, 00:24:04,VALID,919.229,VALID,0,VALID,95.4071,VALID,0,VALID,19.6818,VALID,22,VALID,0.407422,
2012-03-21, 00:25:04,VALID,919.2,VALID,0,VALID,95.4223,VALID,0,VALID,19.6818,VALID,22,VALID,0.487109,
2012-03-21, 00:26:04,VALID,919.206,VALID,0,VALID,95.5367,VALID,0,VALID,19.6413,VALID,22,VALID,0.706641,
2012-03-21, 00:27:04,VALID,919.236,VALID,0,VALID,95.5595,VALID,0,VALID,19.7013,VALID,22,VALID,0.547266,
2012-03-21, 00:28:04,VALID,919.221,VALID,0,VALID,95.3842,VALID,0,VALID,19.6443,VALID,22,VALID,0.619922,
2012-03-21, 00:29:04,VALID,919.186,VALID,0,VALID,95.3689,VALID,0,VALID,19.5843,VALID,22,VALID,0.439063,
2012-03-21, 00:30:04,VALID,919.177,VALID,0,VALID,95.4375,VALID,0,VALID,19.5843,VALID,22,VALID,0.245703,
2012-03-21, 00:31:04,VALID,919.13,VALID,0,VALID,95.3994,VALID,0,VALID,19.5453,VALID,22,VALID,0.331641,
2012-03-21, 00:32:04,VALID,919.094,VALID,0,VALID,95.5519,VALID,0,VALID,19.5258,VALID,22,VALID,0.598437,
2012-03-21, 00:33:04,VALID,919.083,VALID,0,VALID,95.1707,VALID,0,VALID,19.4283,VALID,22,VALID,0.3625,
2012-03-21, 00:34:04,VALID,919.067,VALID,0,VALID,95.3384,VALID,0,VALID,19.4283,VALID,22,VALID,0.326172,
2012-03-21, 00:35:04,VALID,919.065,VALID,0,VALID,95.4375,VALID,0,VALID,19.4283,VALID,22,VALID,0.367969,
2012-03-21, 00:36:04,VALID,919.025,VALID,0,VALID,95.247,VALID,0,VALID,19.3503,VALID,22,VALID,0.605469,
2012-03-21, 00:37:04,VALID,918.977,VALID,0,VALID,95.4223,VALID,0,VALID,19.3113,VALID,22,VALID,0.666016,
2012-03-21, 00:38:04,VALID,918.972,VALID,0,VALID,95.5443,VALID,0,VALID,19.3503,VALID,22,VALID,0.775781,
2012-03-21, 00:39:04,VALID,918.917,VALID,0,VALID,95.6053,VALID,0,VALID,19.3503,VALID,22,VALID,0.440625,
2012-03-21, 00:40:04,VALID,918.922,VALID,0,VALID,95.7425,VALID,0,VALID,19.3893,VALID,22,VALID,0.502344,
2012-03-21, 00:41:04,VALID,918.96,VALID,0,VALID,95.7958,VALID,0,VALID,19.4283,VALID,22,VALID,0.586719,
2012-03-21, 00:42:04,VALID,918.951,VALID,0,VALID,95.7501,VALID,0,VALID,19.4673,VALID,22,VALID,0.292578,
2012-03-21, 00:43:04,VALID,918.898,VALID,0,VALID,95.3689,VALID,0,VALID,19.4688,VALID,22,VALID,0.138672,
2012-03-21, 00:44:04,VALID,918.854,VALID,0,VALID,95.1174,VALID,0,VALID,19.4298,VALID,22,VALID,0.280078,
2012-03-21, 00:45:04,VALID,918.872,VALID,0,VALID,95.0335,VALID,0,VALID,19.4074,VALID,22,VALID,0.283203,
2012-03-21, 00:46:04,VALID,918.877,VALID,0,VALID,95.0716,VALID,0,VALID,19.4283,VALID,22,VALID,0.284766,
2012-03-21, 00:47:04,VALID,918.849,VALID,0,VALID,95.0869,VALID,0.107441,VALID,19.4688,VALID,22,VALID,0,
2012-03-21, 00:48:04,VALID,918.799,VALID,0,VALID,95.0488,VALID,0,VALID,19.4673,VALID,22,VALID,0,
2012-03-21, 00:49:04,VALID,918.814,VALID,0,VALID,95.0716,VALID,0,VALID,19.4673,VALID,22,VALID,0,
2012-03-21, 00:50:04,VALID,918.828,VALID,0,VALID,95.0564,VALID,0,VALID,19.4883,VALID,22,VALID,0,
2012-03-21, 00:51:04,VALID,918.8,VALID,0,VALID,95.0411,VALID,0,VALID,19.4868,VALID,22,VALID,0,
2012-03-21, 00:52:04,VALID,918.792,VALID,0,VALID,95.0106,VALID,0,VALID,19.5078,VALID,22,VALID,0.0921875,
2012-03-21, 00:53:04,VALID,918.778,VALID,0,VALID,94.9039,VALID,0,VALID,19.4868,VALID,23,VALID,0.376563,
2012-03-21, 00:54:04,VALID,918.765,VALID,0,VALID,94.881,VALID,0,VALID,19.4868,VALID,23,VALID,0.501172,
2012-03-21, 00:55:04,VALID,918.715,VALID,0,VALID,94.9268,VALID,0,VALID,19.5063,VALID,23,VALID,0.794922,
2012-03-21, 00:56:04,VALID,918.724,VALID,0,VALID,94.9496,VALID,0,VALID,19.5858,VALID,86,VALID,0.925,
2012-03-21, 00:57:04,VALID,918.716,VALID,0,VALID,94.6676,VALID,0,VALID,19.6053,VALID,86,VALID,0.761719,
2012-03-21, 00:58:04,VALID,918.68,VALID,0,VALID,94.2864,VALID,0,VALID,19.5858,VALID,86,VALID,0.385547,
2012-03-21, 00:59:04,VALID,918.688,VALID,0,VALID,93.9281,VALID,0,VALID,19.5453,VALID,86,VALID,0.185547,
2012-03-21, 01:00:04,VALID,918.688,VALID,0,VALID,93.4021,VALID,0,VALID,19.5078,VALID,86,VALID,0,
2012-03-21, 01:01:04,VALID,918.663,VALID,0,VALID,93.3106,VALID,0,VALID,19.4673,VALID,86,VALID,0,
2012-03-21, 01:02:04,VALID,918.63,VALID,0,VALID,93.4402,VALID,0,VALID,19.4283,VALID,86,VALID,0,
2012-03-21, 01:03:04,VALID,918.615,VALID,0,VALID,93.3335,VALID,0,VALID,19.3503,VALID,86,VALID,0.373047,
2012-03-21, 01:04:04,VALID,918.625,VALID,0,VALID,93.7299,VALID,0,VALID,19.3308,VALID,86,VALID,0.398047,
2012-03-21, 01:05:04,VALID,918.596,VALID,0,VALID,94.0806,VALID,0,VALID,19.3113,VALID,86,VALID,0.186328,
2012-03-21, 01:06:04,VALID,918.623,VALID,0,VALID,94.3017,VALID,0,VALID,19.3113,VALID,86,VALID,0.335156,
2012-03-21, 01:07:04,VALID,918.612,VALID,0,VALID,94.4694,VALID,0,VALID,19.3323,VALID,86,VALID,0.141016,
2012-03-21, 01:08:04,VALID,918.596,VALID,0,VALID,94.5304,VALID,0,VALID,19.2918,VALID,86,VALID,0,
2012-03-21, 01:09:04,VALID,918.589,VALID,0,VALID,94.6523,VALID,0,VALID,19.3338,VALID,86,VALID,0.419531,
2012-03-21, 01:10:04,VALID,918.601,VALID,0,VALID,94.9268,VALID,0,VALID,19.3698,VALID,86,VALID,0.492188,
2012-03-21, 01:11:04,VALID,918.599,VALID,0,VALID,94.7286,VALID,0,VALID,19.4478,VALID,86,VALID,0.251563,
2012-03-21, 01:12:04,VALID,918.588,VALID,0,VALID,94.4008,VALID,0,VALID,19.5063,VALID,87,VALID,0.232422,
2012-03-21, 01:13:04,VALID,918.603,VALID,0,VALID,94.0196,VALID,0,VALID,19.5468,VALID,86,VALID,0.201562,
2012-03-21, 01:14:04,VALID,918.557,VALID,0,VALID,93.829,VALID,0,VALID,19.5648,VALID,86,VALID,0.384375,
2012-03-21, 01:15:04,VALID,918.539,VALID,0,VALID,93.6079,VALID,0,VALID,19.5843,VALID,86,VALID,0.280469,
2012-03-21, 01:16:04,VALID,918.504,VALID,0,VALID,92.9066,VALID,0,VALID,19.4868,VALID,86,VALID,0.340625,
2012-03-21, 01:17:04,VALID,918.477,VALID,0,VALID,92.9066,VALID,0,VALID,19.4493,VALID,86,VALID,0.419531,
2012-03-21, 01:18:04,VALID,918.47,VALID,0,VALID,93.6842,VALID,0,VALID,19.3893,VALID,86,VALID,0.626953,
2012-03-21, 01:19:04,VALID,918.441,VALID,0,VALID,93.5164,VALID,0,VALID,19.3698,VALID,87,VALID,0.660547,
2012-03-21, 01:20:04,VALID,918.381,VALID,0,VALID,93.6003,VALID,0,VALID,19.3323,VALID,86,VALID,0.756641,
2012-03-21, 01:21:04,VALID,918.352,VALID,0,VALID,94.1721,VALID,0,VALID,19.3518,VALID,86,VALID,0.811328,
2012-03-21, 01:22:04,VALID,918.336,VALID,0,VALID,94.0653,VALID,0,VALID,19.3728,VALID,86,VALID,0.555859,
2012-03-21, 01:23:04,VALID,918.34,VALID,0,VALID,94.0043,VALID,0,VALID,19.3308,VALID,86,VALID,0.261719,
2012-03-21, 01:24:04,VALID,918.308,VALID,0,VALID,93.8061,VALID,0,VALID,19.2918,VALID,86,VALID,0.367969,
2012-03-21, 01:25:04,VALID,918.287,VALID,0,VALID,93.7147,VALID,0,VALID,19.2348,VALID,86,VALID,0.986328,
2012-03-21, 01:26:04,VALID,918.269,VALID,0,VALID,94.3017,VALID,0,VALID,19.2139,VALID,87,VALID,1.02383,
2012-03-21, 01:27:04,VALID,918.287,VALID,0,VALID,94.6218,VALID,0,VALID,19.1554,VALID,86,VALID,0.523438,
2012-03-21, 01:28:04,VALID,918.29,VALID,0,VALID,94.66,VALID,0,VALID,19.0983,VALID,86,VALID,0,
2012-03-21, 01:29:04,VALID,918.301,VALID,0,VALID,94.3245,VALID,0,VALID,19.0203,VALID,87,VALID,0,
2012-03-21, 01:30:04,VALID,918.302,VALID,0,VALID,94.5837,VALID,0,VALID,18.9604,VALID,86,VALID,0.0996094,
2012-03-21, 01:31:04,VALID,918.295,VALID,0,VALID,94.8277,VALID,0,VALID,18.9604,VALID,86,VALID,0.346094,
2012-03-21, 01:32:04,VALID,918.276,VALID,0,VALID,95.0259,VALID,0,VALID,18.9994,VALID,86,VALID,0.28125,
2012-03-21, 01:33:04,VALID,918.26,VALID,0,VALID,94.8658,VALID,0,VALID,18.9604,VALID,86,VALID,0.176172,
2012-03-21, 01:34:04,VALID,918.281,VALID,0,VALID,94.7819,VALID,0,VALID,18.8824,VALID,86,VALID,0.420312,
2012-03-21, 01:35:04,VALID,918.234,VALID,0,VALID,95.0792,VALID,0,VALID,18.8629,VALID,86,VALID,0.590625,
2012-03-21, 01:36:04,VALID,918.223,VALID,0,VALID,95.1936,VALID,0,VALID,18.824,VALID,86,VALID,0.496875,
2012-03-21, 01:37:04,VALID,918.252,VALID,0,VALID,95.2622,VALID,0,VALID,18.785,VALID,86,VALID,0.360938,
2012-03-21, 01:38:04,VALID,918.245,VALID,0,VALID,95.4223,VALID,0,VALID,18.785,VALID,86,VALID,0.608984,
2012-03-21, 01:39:04,VALID,918.231,VALID,0,VALID,95.4375,VALID,0,VALID,18.7669,VALID,86,VALID,0.0535156,
2012-03-21, 01:40:04,VALID,918.249,VALID,0,VALID,95.247,VALID,0,VALID,18.7084,VALID,86,VALID,0.194141,
2012-03-21, 01:41:04,VALID,918.266,VALID,0,VALID,95.2241,VALID,0,VALID,18.6485,VALID,87,VALID,0.364062,
2012-03-21, 01:42:04,VALID,918.254,VALID,0,VALID,95.6281,VALID,0.107441,VALID,18.707,VALID,86,VALID,0.217187,
2012-03-21, 01:43:04,VALID,918.223,VALID,0,VALID,95.7958,VALID,0,VALID,18.7265,VALID,86,VALID,0,
2012-03-21, 01:44:04,VALID,918.211,VALID,0,VALID,96.0627,VALID,0,VALID,18.785,VALID,86,VALID,0,
2012-03-21, 01:45:04,VALID,918.226,VALID,0,VALID,96.2075,VALID,0,VALID,18.8434,VALID,86,VALID,0,
2012-03-21, 01:46:04,VALID,918.168,VALID,0,VALID,96.2075,VALID,0,VALID,18.8615,VALID,86,VALID,0,
2012-03-21, 01:47:04,VALID,918.187,VALID,0,VALID,96.1618,VALID,0,VALID,18.8839,VALID,86,VALID,0,
2012-03-21, 01:48:04,VALID,918.144,VALID,0,VALID,96.3142,VALID,0,VALID,18.9229,VALID,86,VALID,0,
2012-03-21, 01:49:04,VALID,918.121,VALID,0,VALID,96.3524,VALID,0,VALID,18.9214,VALID,86,VALID,0.0628906,
2012-03-21, 01:50:04,VALID,918.128,VALID,0,VALID,96.1846,VALID,0,VALID,18.8629,VALID,86,VALID,0.307422,
2012-03-21, 01:51:04,VALID,918.142,VALID,0,VALID,96.2228,VALID,0,VALID,18.8839,VALID,86,VALID,0,
2012-03-21, 01:52:04,VALID,918.164,VALID,0,VALID,96.2533,VALID,0,VALID,18.8824,VALID,86,VALID,0,
2012-03-21, 01:53:04,VALID,918.17,VALID,0,VALID,96.0703,VALID,0,VALID,18.8449,VALID,86,VALID,0,
2012-03-21, 01:54:04,VALID,918.154,VALID,0,VALID,96.1389,VALID,0,VALID,18.824,VALID,86,VALID,0.313281,
2012-03-21, 01:55:04,VALID,918.117,VALID,0,VALID,96.238,VALID,0,VALID,18.8839,VALID,86,VALID,0,
2012-03-21, 01:56:04,VALID,918.126,VALID,0,VALID,96.177,VALID,0.107441,VALID,18.9034,VALID,86,VALID,0,
2012-03-21, 01:57:04,VALID,918.07,VALID,0,VALID,96.1923,VALID,0,VALID,18.9034,VALID,86,VALID,0,
2012-03-21, 01:58:04,VALID,918.069,VALID,0,VALID,96.1923,VALID,0,VALID,18.9019,VALID,86,VALID,0,
2012-03-21, 01:59:04,VALID,918.031,VALID,0,VALID,96.2228,VALID,0,VALID,18.9214,VALID,87,VALID,0,
2012-03-21, 02:00:04,VALID,917.955,VALID,0,VALID,96.0932,VALID,0,VALID,18.9229,VALID,86,VALID,0,
2012-03-21, 02:01:04,VALID,917.958,VALID,0,VALID,95.9636,VALID,0.107441,VALID,18.8839,VALID,86,VALID,0,
2012-03-21, 02:02:04,VALID,917.942,VALID,0,VALID,95.7577,VALID,0,VALID,18.785,VALID,86,VALID,0,
2012-03-21, 02:03:04,VALID,917.953,VALID,0,VALID,95.5519,VALID,0,VALID,18.746,VALID,86,VALID,0,
2012-03-21, 02:04:04,VALID,917.941,VALID,0,VALID,95.4909,VALID,0,VALID,18.7474,VALID,86,VALID,0,
2012-03-21, 02:05:04,VALID,917.94,VALID,0,VALID,95.7501,VALID,0,VALID,18.8059,VALID,86,VALID,0,
2012-03-21, 02:06:04,VALID,917.926,VALID,0,VALID,95.8492,VALID,0,VALID,18.8434,VALID,86,VALID,0,
2012-03-21, 02:07:04,VALID,917.883,VALID,0,VALID,95.9102,VALID,0,VALID,18.8824,VALID,86,VALID,0,
2012-03-21, 02:08:04,VALID,917.881,VALID,0,VALID,95.9712,VALID,0,VALID,18.9214,VALID,87,VALID,0,
2012-03-21, 02:09:04,VALID,917.849,VALID,0,VALID,96.0474,VALID,0,VALID,18.9619,VALID,87,VALID,0.198047,
2012-03-21, 02:10:04,VALID,917.852,VALID,0,VALID,96.0245,VALID,0,VALID,19.0023,VALID,87,VALID,0.573828,
2012-03-21, 02:11:04,VALID,917.842,VALID,0,VALID,95.9712,VALID,0,VALID,19.0218,VALID,86,VALID,0.502734,
2012-03-21, 02:12:04,VALID,917.831,VALID,0,VALID,95.8263,VALID,0,VALID,18.9799,VALID,86,VALID,0.742969,
2012-03-21, 02:13:04,VALID,917.841,VALID,0,VALID,95.7577,VALID,0,VALID,18.9799,VALID,86,VALID,0.569922,
2012-03-21, 02:14:04,VALID,917.849,VALID,0,VALID,95.651,VALID,0,VALID,19.0008,VALID,86,VALID,0.605859,
2012-03-21, 02:15:04,VALID,917.823,VALID,0,VALID,95.6586,VALID,0,VALID,18.9799,VALID,86,VALID,0.778516,
2012-03-21, 02:16:04,VALID,917.829,VALID,0,VALID,95.5748,VALID,0,VALID,18.9799,VALID,86,VALID,0.808594,
2012-03-21, 02:17:04,VALID,917.804,VALID,0,VALID,95.4909,VALID,0,VALID,18.9619,VALID,86,VALID,0.562891,
2012-03-21, 02:18:04,VALID,917.808,VALID,0,VALID,95.4528,VALID,0,VALID,18.9424,VALID,86,VALID,0.647656,
2012-03-21, 02:19:04,VALID,917.819,VALID,0,VALID,95.3156,VALID,0,VALID,18.9034,VALID,87,VALID,0.499219,
2012-03-21, 02:20:04,VALID,917.784,VALID,0,VALID,95.3308,VALID,0,VALID,18.8434,VALID,87,VALID,0.451562,
2012-03-21, 02:21:04,VALID,917.805,VALID,0,VALID,95.2851,VALID,0,VALID,18.8254,VALID,86,VALID,0.657031,
2012-03-21, 02:22:04,VALID,917.789,VALID,0,VALID,95.3384,VALID,0,VALID,18.746,VALID,86,VALID,0.646484,
2012-03-21, 02:23:04,VALID,917.804,VALID,0,VALID,95.2546,VALID,0,VALID,18.6875,VALID,86,VALID,0.615625,
2012-03-21, 02:24:04,VALID,917.783,VALID,0,VALID,95.2546,VALID,0,VALID,18.6499,VALID,86,VALID,0.192578,
2012-03-21, 02:25:04,VALID,917.761,VALID,0,VALID,95.1631,VALID,0,VALID,18.5511,VALID,86,VALID,0.292578,
2012-03-21, 02:26:04,VALID,917.725,VALID,0,VALID,95.1936,VALID,0,VALID,18.5121,VALID,86,VALID,0.762891,
2012-03-21, 02:27:04,VALID,917.702,VALID,0,VALID,95.4985,VALID,0,VALID,18.5135,VALID,86,VALID,0.833594,
2012-03-21, 02:28:04,VALID,917.701,VALID,0,VALID,95.773,VALID,0,VALID,18.533,VALID,86,VALID,0.857813,
2012-03-21, 02:29:04,VALID,917.73,VALID,0,VALID,95.9712,VALID,0,VALID,18.5525,VALID,86,VALID,0.740234,
2012-03-21, 02:30:04,VALID,917.753,VALID,0,VALID,96.055,VALID,0,VALID,18.494,VALID,86,VALID,0.587891,
2012-03-21, 02:31:04,VALID,917.743,VALID,0,VALID,96.1008,VALID,0,VALID,18.4745,VALID,86,VALID,0,
2012-03-21, 02:32:04,VALID,917.743,VALID,0,VALID,96.2075,VALID,0,VALID,18.4745,VALID,86,VALID,0,
2012-03-21, 02:33:04,VALID,917.768,VALID,0,VALID,96.3219,VALID,0,VALID,18.494,VALID,86,VALID,0,
2012-03-21, 02:34:04,VALID,917.74,VALID,0,VALID,96.5734,VALID,0,VALID,18.6485,VALID,86,VALID,0,
2012-03-21, 02:35:04,VALID,917.707,VALID,0,VALID,96.7183,VALID,0,VALID,18.7655,VALID,86,VALID,0,
2012-03-21, 02:36:04,VALID,917.708,VALID,0,VALID,96.7259,VALID,0,VALID,18.824,VALID,86,VALID,0,
2012-03-21, 02:37:04,VALID,917.682,VALID,0,VALID,96.6649,VALID,0,VALID,18.9214,VALID,86,VALID,0,
2012-03-21, 02:38:04,VALID,917.706,VALID,0,VALID,96.4591,VALID,0,VALID,18.9994,VALID,86,VALID,0,
2012-03-21, 02:39:04,VALID,917.658,VALID,0,VALID,96.1313,VALID,0,VALID,19.0384,VALID,86,VALID,0.599219,
2012-03-21, 02:40:04,VALID,917.632,VALID,0,VALID,94.6752,VALID,0,VALID,18.8045,VALID,86,VALID,1.02656,
2012-03-21, 02:41:04,VALID,917.671,VALID,0,VALID,94.5227,VALID,0,VALID,18.7265,VALID,46,VALID,1.16914,
2012-03-21, 02:42:04,VALID,917.646,VALID,0,VALID,94.3626,VALID,0,VALID,18.5705,VALID,30,VALID,0.807813,
2012-03-21, 02:43:04,VALID,917.631,VALID,0,VALID,94.7819,VALID,0,VALID,18.5511,VALID,30,VALID,0.860547,
2012-03-21, 02:44:04,VALID,917.653,VALID,0,VALID,95.4528,VALID,0,VALID,18.629,VALID,30,VALID,1.09961,
2012-03-21, 02:45:04,VALID,917.617,VALID,0,VALID,95.3766,VALID,0.107441,VALID,18.6875,VALID,30,VALID,0.538672,
2012-03-21, 02:46:04,VALID,917.625,VALID,0,VALID,94.9954,VALID,0,VALID,18.629,VALID,30,VALID,0.527734,
2012-03-21, 02:47:04,VALID,917.626,VALID,0,VALID,95.0335,VALID,0,VALID,18.6499,VALID,30,VALID,0.719531,
2012-03-21, 02:48:04,VALID,917.642,VALID,0,VALID,95.2851,VALID,0,VALID,18.7084,VALID,30,VALID,0.661719,
2012-03-21, 02:49:04,VALID,917.655,VALID,0,VALID,95.1707,VALID,0,VALID,18.6875,VALID,30,VALID,0.689062,
2012-03-21, 02:50:04,VALID,917.613,VALID,0,VALID,95.1631,VALID,0,VALID,18.668,VALID,30,VALID,0.888281,
2012-03-21, 02:51:04,VALID,917.629,VALID,0,VALID,95.125,VALID,0,VALID,18.6889,VALID,30,VALID,0.628516,
2012-03-21, 02:52:04,VALID,917.597,VALID,0,VALID,94.9344,VALID,0,VALID,18.629,VALID,30,VALID,0.366406,
2012-03-21, 02:53:04,VALID,917.631,VALID,0,VALID,94.8048,VALID,0,VALID,18.5705,VALID,30,VALID,0.447266,
2012-03-21, 02:54:04,VALID,917.649,VALID,0,VALID,94.8582,VALID,0,VALID,18.5525,VALID,30,VALID,0.249219,
2012-03-21, 02:55:04,VALID,917.598,VALID,0,VALID,95.1631,VALID,0,VALID,18.5511,VALID,30,VALID,0,
2012-03-21, 02:56:04,VALID,917.616,VALID,0,VALID,95.2698,VALID,0,VALID,18.5914,VALID,30,VALID,0,
2012-03-21, 02:57:04,VALID,917.62,VALID,0,VALID,95.3918,VALID,0,VALID,18.59,VALID,30,VALID,0,
2012-03-21, 02:58:04,VALID,917.542,VALID,0,VALID,95.4909,VALID,0,VALID,18.6095,VALID,30,VALID,0,
2012-03-21, 02:59:04,VALID,917.559,VALID,0,VALID,95.6357,VALID,0,VALID,18.6304,VALID,30,VALID,0.308203,
2012-03-21, 03:00:04,VALID,917.526,VALID,0,VALID,95.7425,VALID,0,VALID,18.6485,VALID,30,VALID,0.235156,
2012-03-21, 03:01:04,VALID,917.536,VALID,0,VALID,95.8111,VALID,0,VALID,18.6694,VALID,30,VALID,0.323047,
2012-03-21, 03:02:04,VALID,917.52,VALID,0,VALID,95.7196,VALID,0,VALID,18.6109,VALID,30,VALID,0.332422,
2012-03-21, 03:03:04,VALID,917.571,VALID,0,VALID,95.7577,VALID,0,VALID,18.6109,VALID,30,VALID,0.0773437,
2012-03-21, 03:04:04,VALID,917.547,VALID,0,VALID,95.8187,VALID,0,VALID,18.5914,VALID,30,VALID,0,
2012-03-21, 03:05:04,VALID,917.564,VALID,0,VALID,95.9331,VALID,0,VALID,18.6304,VALID,30,VALID,0,
2012-03-21, 03:06:04,VALID,917.548,VALID,0,VALID,95.7196,VALID,0,VALID,18.5705,VALID,30,VALID,0,
2012-03-21, 03:07:04,VALID,917.523,VALID,0,VALID,95.6129,VALID,0,VALID,18.5121,VALID,30,VALID,0,
2012-03-21, 03:08:04,VALID,917.499,VALID,0,VALID,95.3537,VALID,0,VALID,18.4146,VALID,30,VALID,0.482812,
2012-03-21, 03:09:04,VALID,917.512,VALID,0,VALID,95.6586,VALID,0,VALID,18.4146,VALID,30,VALID,0.674219,
2012-03-21, 03:10:04,VALID,917.525,VALID,0,VALID,95.5367,VALID,0,VALID,18.3965,VALID,30,VALID,0.528125,
2012-03-21, 03:11:04,VALID,917.5,VALID,0,VALID,95.8035,VALID,0.107441,VALID,18.3965,VALID,30,VALID,0.564844,
2012-03-21, 03:12:04,VALID,917.512,VALID,0,VALID,95.6815,VALID,0,VALID,18.3575,VALID,30,VALID,0.392188,
2012-03-21, 03:13:04,VALID,917.476,VALID,0,VALID,95.5367,VALID,0,VALID,18.2782,VALID,30,VALID,0.168359,
2012-03-21, 03:14:04,VALID,917.509,VALID,0,VALID,95.6891,VALID,0,VALID,18.2796,VALID,30,VALID,0.285937,
2012-03-21, 03:15:04,VALID,917.47,VALID,0,VALID,95.9636,VALID,0,VALID,18.338,VALID,30,VALID,0.649219,
2012-03-21, 03:16:04,VALID,917.487,VALID,0,VALID,96.1541,VALID,0,VALID,18.416,VALID,30,VALID,0.380469,
2012-03-21, 03:17:04,VALID,917.482,VALID,0,VALID,96.2685,VALID,0,VALID,18.494,VALID,30,VALID,0.338281,
2012-03-21, 03:18:04,VALID,917.486,VALID,0,VALID,96.1618,VALID,0,VALID,18.5135,VALID,30,VALID,0.430469,
2012-03-21, 03:19:04,VALID,917.455,VALID,0,VALID,96.0932,VALID,0,VALID,18.4926,VALID,30,VALID,0.208594,
2012-03-21, 03:20:04,VALID,917.431,VALID,0,VALID,96.0932,VALID,0,VALID,18.5525,VALID,30,VALID,0.000390625,
2012-03-21, 03:21:04,VALID,917.388,VALID,0,VALID,95.9941,VALID,0,VALID,18.5525,VALID,30,VALID,0.75625,
2012-03-21, 03:22:04,VALID,917.386,VALID,0,VALID,95.7577,VALID,0,VALID,18.533,VALID,30,VALID,0.49375,
2012-03-21, 03:23:04,VALID,917.358,VALID,0,VALID,95.8416,VALID,0,VALID,18.5525,VALID,30,VALID,0.275391,
2012-03-21, 03:24:04,VALID,917.378,VALID,0,VALID,95.712,VALID,0,VALID,18.5734,VALID,30,VALID,0.379297,
2012-03-21, 03:25:04,VALID,917.398,VALID,0,VALID,95.6357,VALID,0,VALID,18.5525,VALID,30,VALID,0.324219,
2012-03-21, 03:26:04,VALID,917.358,VALID,0,VALID,95.4985,VALID,0,VALID,18.5135,VALID,30,VALID,0.264453,
2012-03-21, 03:27:04,VALID,917.35,VALID,0,VALID,95.4604,VALID,0,VALID,18.5135,VALID,30,VALID,0.440234,
2012-03-21, 03:28:04,VALID,917.349,VALID,0,VALID,95.5138,VALID,0,VALID,18.494,VALID,30,VALID,0.220703,
2012-03-21, 03:29:04,VALID,917.4,VALID,0,VALID,95.4833,VALID,0,VALID,18.4745,VALID,30,VALID,0.460547,
2012-03-21, 03:30:04,VALID,917.418,VALID,0,VALID,95.3842,VALID,0,VALID,18.4355,VALID,30,VALID,0.499609,
2012-03-21, 03:31:04,VALID,917.423,VALID,0,VALID,95.6434,VALID,0,VALID,18.4745,VALID,30,VALID,0.726953,
2012-03-21, 03:32:04,VALID,917.424,VALID,0,VALID,95.7501,VALID,0,VALID,18.5135,VALID,30,VALID,0.731641,
2012-03-21, 03:33:04,VALID,917.415,VALID,0,VALID,95.6434,VALID,0,VALID,18.5316,VALID,30,VALID,0.692187,
2012-03-21, 03:34:04,VALID,917.392,VALID,0,VALID,95.6053,VALID,0,VALID,18.5135,VALID,30,VALID,0.585156,
2012-03-21, 03:35:04,VALID,917.352,VALID,0,VALID,95.7806,VALID,0,VALID,18.5511,VALID,30,VALID,0.554688,
2012-03-21, 03:36:04,VALID,917.365,VALID,0,VALID,95.773,VALID,0,VALID,18.5525,VALID,30,VALID,0.482422,
2012-03-21, 03:37:04,VALID,917.359,VALID,0,VALID,95.8721,VALID,0,VALID,18.572,VALID,30,VALID,0.494531,
2012-03-21, 03:38:04,VALID,917.386,VALID,0,VALID,95.8263,VALID,0,VALID,18.5525,VALID,30,VALID,0.123047,
2012-03-21, 03:39:04,VALID,917.355,VALID,0,VALID,95.834,VALID,0,VALID,18.5511,VALID,30,VALID,0,
2012-03-21, 03:40:04,VALID,917.341,VALID,0,VALID,95.8721,VALID,0,VALID,18.5511,VALID,30,VALID,0,
2012-03-21, 03:41:04,VALID,917.354,VALID,0,VALID,95.8645,VALID,0,VALID,18.5705,VALID,30,VALID,0,
2012-03-21, 03:42:04,VALID,917.316,VALID,0,VALID,95.8492,VALID,0,VALID,18.5705,VALID,30,VALID,0.107031,
2012-03-21, 03:43:04,VALID,917.325,VALID,0,VALID,95.8645,VALID,0.107441,VALID,18.5496,VALID,30,VALID,0.284375,
2012-03-21, 03:44:04,VALID,917.307,VALID,0,VALID,95.7882,VALID,0.107441,VALID,18.5511,VALID,30,VALID,0.302734,
2012-03-21, 03:45:04,VALID,917.341,VALID,0,VALID,95.8721,VALID,0.107441,VALID,18.5511,VALID,30,VALID,0.359375,
2012-03-21, 03:46:04,VALID,917.319,VALID,0,VALID,95.8568,VALID,0.107441,VALID,18.5511,VALID,30,VALID,0.203516,
2012-03-21, 03:47:04,VALID,917.32,VALID,0,VALID,95.8187,VALID,0,VALID,18.5705,VALID,30,VALID,0.541016,
2012-03-21, 03:48:04,VALID,917.344,VALID,0,VALID,95.651,VALID,0.107441,VALID,18.5511,VALID,30,VALID,0.493359,
2012-03-21, 03:49:04,VALID,917.335,VALID,0,VALID,95.5443,VALID,0.107441,VALID,18.4926,VALID,30,VALID,0.510938,